Showing default

TYVAK-0172, 46267

Orbit data source: Space-Track

TYVAK-0172, 46267 is a payload satellite owned by Echostar AU (US) in SSO that was launched on Sun, 30 Aug 2020 UTC via an FALCON 9 launch vehicle from the Air Force Eastern Test Range (AFETR). Payloads include a variety of satellites, spacecraft, and rockets equipped with specific instruments for various scientific and technological missions. These include communications satellites like Starlink; space stations such as the ISS; scientific satellites like the Hubble; Earth observation satellites from companies like Planet Labs, Umbra, and HawkEye 360; GPS; miniature CubeSats for education and research; and military/defense satellites.

Loading next visibility...
TYVAK-0172 details
Identifier
46267, 2020-059C
Orbit
SSO
Last TLE update10 hours ago
Origin
Flag of USEchostar AU (US)
ManufacturerTyvak NSS
MissionOperational Commercial Technology
Bus & MotorCUBESAT 6U?, Unknown motor
Mass11 kg wet, 11 kg dry
Launch date (UTC)
2020-08-30 (4 years ago)
Launch vehicle
FALCON 9
Launch site
Air Force Eastern Test Range (AFETR)
Object type
Payload
Rocket body
Debris
Shape & HBRBox + 2 Pan, Unknown HBR
Radar Cross Section0.077 m², Medium (>0.1 m² and < 1m²)

Expand to show TLE details & history

TLE from 10 hours ago
0 TYVAK-0172
1 46267U 20059C   24361.54314225  .00035183  00000-0  17120-2 0  9996
2 46267  97.7978 208.1312 0003203  31.2228 328.9195 15.18298770235798
Epoch: 2024-12-26T13:02Z
Definitive object data (Epoch: 2024-12-26T13:02:07.49Z)
Latitude
Longitude-82.92104°
Altitude512.168 km
Speed7.609 km/s
True Right ascension13h 52m 31s
True Declination0° 00' 00"
Sunlit
Object was in daylight at TLE epoch
Visualization TLE readout
Latitude13.00274°
Longitude-84.31325°
Altitude511.099 km
Speed7.611 km/s
Apparent Right ascension12h 12m 02s
Apparent Declination-13° 53' 20"
Sunlit
Object is in daylight
Visualization observer readout
Local Sidereal Time21:58:09
Azimuth302.073° NW
Elevation-50.815°
Doppler factor1
Orbital elements
Apogee altitude510.173 km
Perigee altitude505.762 km
Semi-major axis6,886.104 km
Eccentricity0.0003203
Inclination97.7978°
RAAN208.1312°
Arg. of periapsis31.2228°
True anomaly328.90055°
Mean anomaly328.9195°
Eccentric anomaly328.91002°
Mean motion3.79824 °/min
BSTAR0.001712
Orbital period94.78 mins
Loading maneuver chart data...
Loading historical data...
Loading historical data...
Loading historical data...
Loading historical data...
Loading historical data...
Loading historical data...
Loading historical data...
Other satellites on launch #59 in the year 2020 (2020-08-30 UTC)

TYVAK-0172 Visibility forecast

Observer location: undefined°, undefined

Span
Click to sort rows by Start time (UTC) header in descending order
Start Az.
Max El. time (UTC)
Max El. Az.
Max El.
End time (UTC)
End Az.
5 mins2024-12-27 02:15:58.384Z44.314° NE2024-12-27 02:17:58.384Z83.164° E23.945°2024-12-27 02:20:58.384Z150.155° SSE
5 mins2024-12-27 14:28:58.384Z204.724° SW2024-12-27 14:30:58.384Z265.014° W32.24°2024-12-27 14:33:58.384Z329.185° NNW
|